Weather Roundup
Issued by NWS

Home | Current Version | Previous Version | Text Only | Print | Product List | Glossary On
Versions: 1 2 3 4 5 6 7 8 9 10 11 12 13 14 15 16 17 18 19 20 21 22 23 24 25 26 27 28 29 30 31 32 33 34 35 36 37 38 39 40 41 42 43 44 45 46 47 48 49 50
000
NZUS93 KARX 250910
HRRWXR

CURRENT HOURLY OBSERVATIONS ACROSS
MUCH OF THE UPPER MISSISSIPPI VALLEY
NATIONAL WEATHER SERVICE LA CROSSE WI
400 AM CDT FRI APR 25 2014


...SOUTHEAST MINNESOTA...


CITY           SKY/WX    TMP DP  RH WIND       PRES   REMARKS
ROCHESTER      LGT RAIN  34  32  92 SW7       29.73S VSB 1/4 WCI  28
ROCHESTER/MAYO FAIR      40  38  93 SW3       29.73S
WINONA         CLEAR     37  37 100 CALM      29.74S FOG
AUSTIN         FOG       34  34 100 CALM      29.74S VSB 1/4
ALBERT LEA     CLEAR     37  37 100 CALM      29.74S FOG
DODGE CENTER   FOG       37  37 100 SW8       29.73S VSB 1/4 WCI  31
PRESTON        CLEAR     37  36  96 SW6       29.75R WCI  32
OWATONNA       CLEAR     37  36  93 S6        29.74R FOG     WCI  33
FARIBAULT      FOG       36  32  87 S3        29.73S VSB 1/4
$$

...ELSEWHERE IN MINNESOTA...


CITY           SKY/WX    TMP DP  RH WIND       PRES   REMARKS
MINNEAPOLIS    PTCLDY    37  37 100 S3        29.72S FOG
INTNL FALLS    LGT SNOW  33  32  96 NE5       29.67S FOG     WCI  29
DULUTH         LGT SNOW  32  30  92 W8        29.64F FOG     WCI  25
RED WING       CLEAR     34  32  93 CALM      29.72R FOG
REDWOOD FALLS  PTCLDY    42  38  85 W9        29.72R
MANKATO        CLEAR     43  37  81 CALM      29.74R
WORTHINGTON    CLEAR     39  32  75 SW10      29.77S WCI  32
FAIRMONT       CLEAR     43  37  81 SW10      29.75F
$$

...SOUTHWEST WISCONSIN...


CITY           SKY/WX    TMP DP  RH WIND       PRES   REMARKS
LA CROSSE      CLEAR     40  37  89 SW5       29.74S
PRAIRIE DU CHI PTCLDY    39  38  94 CALM      29.76R FOG
BOSCOBEL       MOCLDY    44  39  82 CALM      29.75S
LONE ROCK      CLOUDY    44  39  82 NW12      29.74R
PLATTEVILLE    CLOUDY    41  39  93 NW5       29.74R
FORT MC COY    MOCLDY    41  38  87 CALM      29.74S
CAMP DOUGLAS   CLOUDY    42  42 100 NW7       29.72R
VIROQUA        CLOUDY    41  41  99 NW9       29.73S
WIS DELLS      CLOUDY    43  38  85 NW9G16    29.72R
$$

...ELSEWHERE IN WISCONSIN...


CITY           SKY/WX    TMP DP  RH WIND       PRES   REMARKS
MILWAUKEE      CLOUDY    43  39  86 NE5       29.69R
MADISON        CLOUDY    45  41  86 NW12      29.70R
GREEN BAY      CLOUDY    40  37  89 SE8       29.70F WCI  34
EAU CLAIRE     CLOUDY    38  37  97 CALM      29.72R
BLACK RVR FLS    N/A     37  37 100 CALM      29.72S FOG
MEDFORD        CLOUDY    39  37  93 W6        29.69R WCI  34
WAUSAU         CLOUDY    39  39 100 S3        29.68R FOG
WIS RAPIDS     CLOUDY    42  38  85 W13G18    29.72R
MARSHFIELD     CLOUDY    41  37  86 NW9       29.70S
RICE LAKE      CLOUDY    38  36  94 CALM      29.72S
$$

...NORTHEAST IOWA...


CITY           SKY/WX    TMP DP  RH WIND       PRES   REMARKS
WATERLOO       CLEAR     39  38  96 W8        29.78R FOG     WCI  33
DUBUQUE        CLOUDY    42  39  89 NW13      29.74R
DECORAH        CLEAR     39  39 100 SW3       29.75R
MASON CITY     CLEAR     37  37 100 W5        29.77S FOG     WCI  33
CHARLES CITY   FOG       36  36 100 SW6       29.77S VSB<1/4 WCI  31
OELWEIN        CLEAR    N/A N/A N/A W7        29.78R FOG
$$

...ELSEWHERE IN IOWA...


CITY           SKY/WX    TMP DP  RH WIND       PRES   REMARKS
DES MOINES     CLEAR     43  39  86 SW5       29.82R
IOWA CITY      PTCLDY    43  41  93 NW8       29.80R
FORT DODGE     CLEAR     39  36  87 CALM      29.79S
MARSHALLTOWN   CLEAR     38  38 100 W3        29.79R FOG
CEDAR RAPIDS   PTCLDY    38  37  97 NW7       29.78R FOG     WCI  33
$$

...NORTHERN ILLINOIS...


CITY           SKY/WX    TMP DP  RH WIND       PRES   REMARKS
CHICAGO-OHARE  CLOUDY    46  41  82 N7        29.65R
DUPAGE         CLOUDY    47  44  90 NW7       29.65S
CHICAGO-MIDWAY LGT RAIN  49  47  93 NW6       29.64S
MOLINE         CLOUDY    46  42  86 NW13      29.75R
ROCKFORD       DRIZZLE   50  46  86 NW17G23   29.71R FOG
STERLING       CLOUDY    48  43  81 N13G18    29.70R
PEORIA         CLOUDY    54  48  80 NW14G22   29.70R
$$

NOTE: "FAIR" INDICATES FEW OR NO CLOUDS BELOW 12,000 FEET WITH NO
SIGNIFICANT WEATHER AND/OR OBSTRUCTIONS TO VISIBILITY. WIND
SPEEDS ARE IN MILES-PER-HOUR.



USA.gov is the U.S. government's official web portal to all federal, state and local government web resources and services.